Location: Unspecified
(0.0000°N, 0.0000°E)
Time: 22:53:34
(UTC+00:00)

N. Korean satellite - Pass Details

Date: 15 February 2020
Orbit: 456 x 505 km, 97.2° (Epoch: 26 February)

Event Time Altitude Azimuth Distance (km) Brightness Sun altitude
Rises 04:45:52 0° 34° (NE) 2,587 10.5 -21.5°
Reaches altitude 10° 04:48:19 10° 51° (NE) 1,702 9.8 -20.9°
Maximum altitude 04:51:07 21° 101° (E) 1,174 9.4 -20.2°
Drops below altitude 10° 04:53:54 10° 151° (SSE) 1,695 9.9 -19.5°
Sets 04:56:20 0° 167° (SSE) 2,572 10.6 -19.0°
